Location: Caltech
(34.1382°N, 118.1253°W)
Time: 16:45:34
(UTC-07:00)

Iridium 95 - Visible Passes

Search period start: 29 March 2015 00:00
Search period end: 08 April 2015 00:00
Orbit: 776 x 779 km, 86.4° (Epoch: 29 March)

Date Brightness Start Highest point End Pass type
(mag) Time Alt. Az. Time Alt. Az. Time Alt. Az.
30 Mar 6.4 05:49:49 10° SSE 05:54:52 55° E 05:59:59 10° NNE visible
31 Mar 7.7 05:17:09 10° SE 05:21:28 28° E 05:25:56 10° NNE visible
01 Apr 8.5 04:45:30 10° ESE 04:48:09 15° E 04:51:05 10° NE visible
02 Apr 5.6 05:49:44 10° S 05:54:56 83° E 06:00:10 10° N visible
03 Apr 6.8 05:16:39 10° SSE 05:21:29 42° E 05:26:24 10° NNE visible
04 Apr 8.0 04:44:17 10° SE 04:48:07 22° E 04:52:07 10° NNE visible
05 Apr 8.7 04:13:39 10° E 04:14:49 11° E 04:16:21 10° ENE visible
05 Apr 5.5 05:49:52 10° S 05:55:01 66° W 06:00:13 10° N visible
06 Apr 6.0 05:16:23 10° S 05:21:31 64° E 05:26:41 10° N visible
07 Apr 7.3 04:43:34 10° SSE 04:48:06 32° E 04:52:44 10° NNE visible
